This is the latest recevied weather packets stored in our database for station/object KC5TIL-3. If no packets are shown the sender has not sent any weather packets the latest 10 day(s).
| Time | Temp. | Humidity | Pressure | Rain* | Wind** | Luminosity | Snow |
|---|---|---|---|---|---|---|---|
| 1777383663 | 25.56° C | 71% | 1008.8 hPa | 0 mm | 1.79 m/s, 177° | - | - |
| 1777383063 | 25.56° C | 71% | 1009.8 hPa | 0 mm | 2.68 m/s, 208° | - | - |
| 1777382765 | 25.56° C | 71% | 1009.8 hPa | 0 mm | 2.68 m/s, 217° | - | - |
| 1777382166 | 25.56° C | 71% | 1008.8 hPa | 0 mm | 3.13 m/s, 200° | - | - |
| 1777381868 | 25.56° C | 71% | 1008.8 hPa | 0 mm | 1.79 m/s, 133° | - | - |
| 1777381263 | 25.56° C | 72% | 1008.8 hPa | 0 mm | 2.24 m/s, 135° | - | - |
| 1777380965 | 25.56° C | 72% | 1008.8 hPa | 0 mm | 2.24 m/s, 172° | - | - |
| 1777380366 | 25.56° C | 72% | 1008.8 hPa | 0 mm | 2.68 m/s, 148° | - | - |
| 1777380068 | 25.56° C | 71% | 1008.8 hPa | 0 mm | 3.13 m/s, 188° | - | - |
| 1777379766 | 25.56° C | 71% | 1008.8 hPa | 0 mm | 1.79 m/s, 205° | - | - |
| 1777379468 | 25.56° C | 71% | 1008.8 hPa | 0 mm | 1.79 m/s, 215° | - | - |
| 1777379170 | 25.56° C | 71% | 1008.8 hPa | 0 mm | 2.68 m/s, 199° | - | - |
| 1777378571 | 25.56° C | 70% | 1007.8 hPa | 0 mm | 2.68 m/s, 172° | - | - |
| 1777378273 | 25.56° C | 70% | 1007.8 hPa | 0 mm | 1.79 m/s, 228° | - | - |
| 1777377674 | 25.56° C | 70% | 1007.8 hPa | 0 mm | 2.24 m/s, 197° | - | - |
| 1777377074 | 25.56° C | 69% | 1007.8 hPa | 0 mm | 2.24 m/s, 173° | - | - |
| 1777376776 | 25.56° C | 69% | 1007.8 hPa | 0 mm | 2.24 m/s, 198° | - | - |
| 1777376176 | 25.56° C | 69% | 1007.8 hPa | 0 mm | 2.68 m/s, 190° | - | - |
| 1777375878 | 25.56° C | 69% | 1007.8 hPa | 0 mm | 2.68 m/s, 177° | - | - |
| 1777374381 | 25.56° C | 69% | 1007.8 hPa | 0 mm | 3.13 m/s, 178° | - | - |
| 1777373172 | 25.56° C | 68% | 1007.8 hPa | 0 mm | 1.79 m/s, 192° | - | - |
| 1777372874 | 25.56° C | 68% | 1007.8 hPa | 0 mm | 2.68 m/s, 170° | - | - |
| 1777372572 | 25.56° C | 68% | 1006.8 hPa | 0 mm | 3.13 m/s, 139° | - | - |
| 1777372274 | 25.56° C | 68% | 1006.8 hPa | 0 mm | 2.68 m/s, 135° | - | - |
| 1777371675 | 25.56° C | 68% | 1007.8 hPa | 0 mm | 2.68 m/s, 141° | - | - |
* Rain latest hour (hover to see other rain measurements)
** Current wind speed in m/s (hover to see current wind gust speed)